Regional Weather Roundup
Issued by NWS Midland/Odessa, TX

Home | Current Version | Previous Version | Text Only | Print | Product List | Glossary On
Versions: 1 2 3 4 5 6 7 8 9 10 11 12 13 14 15 16 17 18 19 20 21 22 23 24 25 26 27 28 29 30 31 32 33 34 35 36 37 38 39 40 41 42 43 44 45 46 47 48 49 50
000
ASUS44 KMAF 291301
RWRMAF
MIDLAND AREA WEATHER ROUNDUP
NATIONAL WEATHER SERVICE MIDLAND TX
800 AM CDT FRI MAY 29 2015

...IN SOUTHWEST TEXAS AND SOUTHEAST NEW MEXICO...

CITY           SKY/WX    TMP DP  RH WIND       PRES   REMARKS
ALPINE         SUNNY     65  57  75 SW9       30.11R
ANDREWS        FAIR      56  56 100 CALM      30.01R
ARTESIA        SUNNY     57  55  94 NW12      30.04R
BIG SPRING     PTSUNNY   63  60  88 NE8       30.02R
CARLSBAD       SUNNY     58  54  86 W9        30.01R
DRYDEN           N/A     66  63  90 VRB6      29.96F
FORT STOCKTON  SUNNY     64  58  80 SE5       29.95R
GUAD PASS      SUNNY     63  35  35 SW8       30.10R
HOBBS          SUNNY     57  57 100 NE8       30.02S
MARFA          SUNNY     55  52  88 CALM      30.11R
MIDLAND AIRPK  SUNNY     60  60 100 CALM      30.00R
MIDLAND INTL   SUNNY     61  58  90 NE7       29.99R
ODESSA         SUNNY     61  56  83 E8        30.00R
PECOS          SUNNY     55  54  94 CALM      29.96R
PRESIDIO       FAIR      73  58  60 N8        29.97R
SEMINOLE       SUNNY     56  55  95 NE3       30.03R
SNYDER         CLOUDY    59  58  97 CALM      30.00S
WINK           SUNNY     60  55  83 E5        29.96R
$$
...OTHER STATIONS IN TEXAS...

CITY           SKY/WX    TMP DP  RH WIND       PRES   REMARKS
ABILENE        CLOUDY    64  61  90 SE3       29.98F
AMARILLO       MOSUNNY   58  55  90 NW9       30.03R
AUSTIN         CLOUDY    65  65 100 NW6       29.93R
BROWNSVILLE    CLOUDY    80  76  87 CALM      29.97R FOG
CORPUS CHRISTI TSTM      69  64  84 N12       30.04R
DALLAS FTW     CLOUDY    69  67  93 SE3       29.87R
DEL RIO        SUNNY     65  62  90 SE7       29.95R
EL PASO        SUNNY     64  26  23 E6        30.01R
HOUSTON INT    CLOUDY    70  68  93 SE10      29.95F
LUBBOCK        PTSUNNY   59  57  93 N3        30.02R FOG
SAN ANGELO     CLOUDY    62  60  93 CALM      29.98R
SAN ANTONIO    CLOUDY    67  62  84 W9        29.93R
WACO           PTSUNNY   66  64  93 CALM      29.90S
WICHITA FALLS  NOT AVBL
$$
...OTHER LOCATIONS IN NEW MEXICO...

CITY           SKY/WX    TMP DP  RH WIND       PRES   REMARKS
ALAMAGORDO     SUNNY     57  23  26 SE6       30.03R
ALBUQUERQUE    PTSUNNY   61  37  41 N8        30.15R
CANNON AFB     SUNNY     56  51  81 NW3       30.07R
CLOVIS         SUNNY     54  48  82 N8        30.06R
HOLLOMAN AFB   SUNNY     59  25  26 SE3       30.01R
ROSWELL        SUNNY     59  53  80 NW7       30.04R
RUIDOSO        SUNNY     57  27  30 W9        30.21R
SANTA FE       SUNNY     52  35  52 N13       30.18R
TRUTH OR CONSE MOSUNNY   63  21  20 N5        30.10R
TUCUMCARI      SUNNY     57  52  83 CALM      30.07R
$$



USA.gov is the U.S. government's official web portal to all federal, state and local government web resources and services.